Year,Month,Day,Hour,Minute,Value (Times are PST for temperature in C)
2009,08,24,11,38,14.90
2009,08,24,11,39,15.00
2009,08,24,11,40,15.00
2009,08,24,11,41,15.10
2009,08,24,11,42,15.10
2009,08,24,11,43,15.20
2009,08,24,11,44,15.20
2009,08,24,11,45,15.20
2009,08,24,11,46,15.30
2009,08,24,11,47,15.30
2009,08,24,11,48,15.30
2009,08,24,11,49,15.30
2009,08,24,11,50,15.30
2009,08,24,11,51,15.20
2009,08,24,11,52,15.00
2009,08,24,11,53,14.90
2009,08,24,11,54,14.80
2009,08,24,11,55,14.80
2009,08,24,11,56,14.80
2009,08,24,11,57,14.80
2009,08,24,11,58,14.70
2009,08,24,11,59,14.60
2009,08,24,12,00,14.50
2009,08,24,12,01,14.40
2009,08,24,12,02,14.40
2009,08,24,12,03,14.40
2009,08,24,12,04,14.50
2009,08,24,12,05,14.60
2009,08,24,12,06,14.60
2009,08,24,12,07,14.50
2009,08,24,12,08,14.30
2009,08,24,12,09,14.10
2009,08,24,12,10,14.00
2009,08,24,12,11,14.00
2009,08,24,12,12,13.90
2009,08,24,12,13,13.90
2009,08,24,12,14,13.90
2009,08,24,12,15,13.80
2009,08,24,12,16,13.80
2009,08,24,12,17,13.70
2009,08,24,12,18,13.60
2009,08,24,12,19,13.60
2009,08,24,12,20,13.60
2009,08,24,12,21,13.60
2009,08,24,12,22,13.60
2009,08,24,12,23,13.60
2009,08,24,12,24,13.60
2009,08,24,12,25,13.60
2009,08,24,12,26,13.60
2009,08,24,12,27,13.60
2009,08,24,12,28,13.60
2009,08,24,12,29,13.60
2009,08,24,12,30,13.60
2009,08,24,12,31,13.60
2009,08,24,12,32,13.60
2009,08,24,12,33,13.60
2009,08,24,12,34,13.60
2009,08,24,12,35,13.50
2009,08,24,12,36,13.40
2009,08,24,12,37,13.40
2009,08,24,12,38,13.40
2009,08,24,12,39,13.30
2009,08,24,12,40,13.30
2009,08,24,12,41,13.20
2009,08,24,12,42,13.20
2009,08,24,12,43,13.20
2009,08,24,12,44,13.20
2009,08,24,12,45,13.20
2009,08,24,12,46,13.30
2009,08,24,12,47,13.30
2009,08,24,12,48,13.20
2009,08,24,12,49,13.20
2009,08,24,12,50,13.10
2009,08,24,12,51,13.10
2009,08,24,12,52,13.00
2009,08,24,12,53,13.00
2009,08,24,12,54,12.90
2009,08,24,12,55,12.90
2009,08,24,12,56,12.90
2009,08,24,12,57,12.80
2009,08,24,12,58,12.70
2009,08,24,12,59,12.70
2009,08,24,13,00,12.70
2009,08,24,13,01,12.80
2009,08,24,13,02,12.70
2009,08,24,13,03,12.70
2009,08,24,13,04,12.60
2009,08,24,13,05,12.70
2009,08,24,13,06,12.60
2009,08,24,13,07,12.50
2009,08,24,13,08,12.50
2009,08,24,13,09,12.50
2009,08,24,13,10,12.40
2009,08,24,13,11,12.50
2009,08,24,13,12,12.40
2009,08,24,13,13,12.30
2009,08,24,13,14,12.30
2009,08,24,13,15,12.20
2009,08,24,13,16,12.20
2009,08,24,13,17,12.20
2009,08,24,13,18,12.10
2009,08,24,13,19,12.10
2009,08,24,13,20,12.10
2009,08,24,13,21,12.10
2009,08,24,13,22,12.00
2009,08,24,13,23,12.10
2009,08,24,13,24,12.00
2009,08,24,13,25,11.90
2009,08,24,13,26,11.90
2009,08,24,13,27,11.80
2009,08,24,13,28,11.70
2009,08,24,13,29,11.70
2009,08,24,13,30,11.80
2009,08,24,13,31,11.80
2009,08,24,13,32,11.80
2009,08,24,13,33,11.80
2009,08,24,13,34,11.60
2009,08,24,13,35,11.60
2009,08,24,13,36,11.60
2009,08,24,13,37,11.60
2009,08,24,13,38,11.60
2009,08,24,13,39,11.60
2009,08,24,13,40,11.60
2009,08,24,13,41,11.60
2009,08,24,13,42,11.50
2009,08,24,13,43,11.40
2009,08,24,13,44,11.40
2009,08,24,13,45,11.40
2009,08,24,13,46,11.40
2009,08,24,13,47,11.40
2009,08,24,13,48,11.40
2009,08,24,13,49,11.40
2009,08,24,13,50,11.40
2009,08,24,13,51,11.50
2009,08,24,13,52,11.60
2009,08,24,13,53,11.60
2009,08,24,13,54,11.60
2009,08,24,13,55,11.60
2009,08,24,13,56,11.60
2009,08,24,13,57,11.60
2009,08,24,13,58,11.70
2009,08,24,13,59,11.80
2009,08,24,14,00,11.90
2009,08,24,14,01,12.00
2009,08,24,14,02,12.10
2009,08,24,14,03,12.20
2009,08,24,14,04,12.30
2009,08,24,14,05,12.40
2009,08,24,14,06,12.50
2009,08,24,14,07,12.70
2009,08,24,14,08,12.80
2009,08,24,14,09,12.90
2009,08,24,14,10,13.00
2009,08,24,14,11,13.00
2009,08,24,14,12,13.10
2009,08,24,14,13,13.20
2009,08,24,14,14,13.40
2009,08,24,14,15,13.60
2009,08,24,14,16,13.70
2009,08,24,14,17,13.80
2009,08,24,14,18,13.80
2009,08,24,14,19,13.90
2009,08,24,14,20,14.10
2009,08,24,14,21,14.20
2009,08,24,14,22,14.30
2009,08,24,14,23,14.20
2009,08,24,14,24,14.20
2009,08,24,14,25,14.10
2009,08,24,14,26,13.90
2009,08,24,14,27,13.80
2009,08,24,14,28,13.70
2009,08,24,14,29,13.70
2009,08,24,14,30,13.70
2009,08,24,14,31,13.70
2009,08,24,14,32,13.70
2009,08,24,14,33,13.80
2009,08,24,14,34,13.90
2009,08,24,14,35,13.90
2009,08,24,14,36,13.90
2009,08,24,14,37,13.90
2009,08,24,14,38,13.90
2009,08,24,14,39,13.90
2009,08,24,14,40,13.90
2009,08,24,14,41,13.80
2009,08,24,14,42,13.90
2009,08,24,14,43,14.00
2009,08,24,14,44,14.10
2009,08,24,14,45,14.20
2009,08,24,14,46,14.30
2009,08,24,14,47,14.50
2009,08,24,14,48,14.60
2009,08,24,14,49,14.70
2009,08,24,14,50,14.80
2009,08,24,14,51,14.80
2009,08,24,14,52,14.80
2009,08,24,14,53,14.90
2009,08,24,14,54,14.80
2009,08,24,14,55,14.80
2009,08,24,14,56,14.80
2009,08,24,14,57,14.70
2009,08,24,14,58,14.60
2009,08,24,14,59,14.60
2009,08,24,15,00,14.50
2009,08,24,15,01,14.40
2009,08,24,15,02,14.20
2009,08,24,15,03,14.20
2009,08,24,15,04,14.20
2009,08,24,15,05,14.30
2009,08,24,15,06,14.40
2009,08,24,15,07,14.50
2009,08,24,15,08,14.50
2009,08,24,15,09,14.50
2009,08,24,15,10,14.60
2009,08,24,15,11,14.60
2009,08,24,15,12,14.60
2009,08,24,15,13,14.60
2009,08,24,15,14,14.70
2009,08,24,15,15,14.70
2009,08,24,15,16,14.70
2009,08,24,15,17,14.80
2009,08,24,15,18,14.80
2009,08,24,15,19,14.80
2009,08,24,15,20,14.80
2009,08,24,15,21,14.80
2009,08,24,15,22,14.90
2009,08,24,15,23,15.00
2009,08,24,15,24,15.00
2009,08,24,15,25,15.10
2009,08,24,15,26,15.20
2009,08,24,15,27,15.30
2009,08,24,15,28,15.30
2009,08,24,15,29,15.30
2009,08,24,15,30,15.30
2009,08,24,15,31,15.30
2009,08,24,15,32,15.30
2009,08,24,15,33,15.30
2009,08,24,15,34,15.30
2009,08,24,15,35,15.20
2009,08,24,15,36,15.20
2009,08,24,15,37,15.10
2009,08,24,15,38,15.00
2009,08,24,15,39,14.90
2009,08,24,15,40,14.80
2009,08,24,15,41,14.80
2009,08,24,15,42,14.70
2009,08,24,15,43,14.60
2009,08,24,15,44,14.60
2009,08,24,15,45,14.50
2009,08,24,15,46,14.50
2009,08,24,15,47,14.40
2009,08,24,15,48,14.40
2009,08,24,15,49,14.30
2009,08,24,15,50,14.20
2009,08,24,15,51,14.10
2009,08,24,15,52,14.10
2009,08,24,15,53,14.20
2009,08,24,15,54,14.20
2009,08,24,15,55,14.30
2009,08,24,15,56,14.50
2009,08,24,15,57,14.50
2009,08,24,15,58,14.50
2009,08,24,15,59,14.50
2009,08,24,16,00,14.50
2009,08,24,16,01,14.50
2009,08,24,16,02,14.60
2009,08,24,16,03,14.60
2009,08,24,16,04,14.80
2009,08,24,16,05,14.90
2009,08,24,16,06,15.00
2009,08,24,16,07,15.10
2009,08,24,16,08,15.20
2009,08,24,16,09,15.30
2009,08,24,16,10,15.30
2009,08,24,16,11,15.40
2009,08,24,16,12,15.50
2009,08,24,16,13,15.50
2009,08,24,16,14,15.60
2009,08,24,16,15,15.70
2009,08,24,16,16,15.80
2009,08,24,16,17,15.90
2009,08,24,16,18,16.00
2009,08,24,16,19,16.10
2009,08,24,16,20,16.10
2009,08,24,16,21,16.10
2009,08,24,16,22,16.10
2009,08,24,16,23,16.20
2009,08,24,16,24,16.20
2009,08,24,16,25,16.30
2009,08,24,16,26,16.30
2009,08,24,16,27,16.40
2009,08,24,16,28,16.40
2009,08,24,16,29,16.50
2009,08,24,16,30,16.60
2009,08,24,16,31,16.70
2009,08,24,16,32,16.80
2009,08,24,16,33,16.80
2009,08,24,16,34,16.80
2009,08,24,16,35,16.80
2009,08,24,16,36,16.80
2009,08,24,16,37,16.80
2009,08,24,16,38,16.70
2009,08,24,16,39,16.70
2009,08,24,16,40,16.70
2009,08,24,16,41,16.60
2009,08,24,16,42,16.60
2009,08,24,16,43,16.40
2009,08,24,16,44,16.40
2009,08,24,16,45,16.40
2009,08,24,16,46,16.40
2009,08,24,16,47,16.40
2009,08,24,16,48,16.30
2009,08,24,16,49,16.30
2009,08,24,16,50,16.40
2009,08,24,16,51,16.40
2009,08,24,16,52,16.40
2009,08,24,16,53,16.40
2009,08,24,16,54,16.40
2009,08,24,16,55,16.40
2009,08,24,16,56,16.40
2009,08,24,16,57,16.40
2009,08,24,16,58,16.40
2009,08,24,16,59,16.50
2009,08,24,17,00,16.40
2009,08,24,17,01,16.60
2009,08,24,17,02,16.60
2009,08,24,17,03,16.60
2009,08,24,17,04,16.60
2009,08,24,17,05,16.70
2009,08,24,17,06,16.70
2009,08,24,17,07,16.70
2009,08,24,17,08,16.70
2009,08,24,17,09,16.80
2009,08,24,17,10,16.80
2009,08,24,17,11,16.90
2009,08,24,17,12,16.90
2009,08,24,17,13,17.00
2009,08,24,17,14,17.00
2009,08,24,17,15,16.90
2009,08,24,17,16,16.90
2009,08,24,17,17,16.90
2009,08,24,17,18,16.90
2009,08,24,17,19,16.90
2009,08,24,17,20,16.90
2009,08,24,17,21,16.90
2009,08,24,17,22,16.90
2009,08,24,17,23,16.80
2009,08,24,17,24,16.80
2009,08,24,17,25,16.80
2009,08,24,17,26,16.70
2009,08,24,17,27,16.70
2009,08,24,17,28,16.70
2009,08,24,17,29,16.70
2009,08,24,17,30,16.70
2009,08,24,17,31,16.70
2009,08,24,17,32,16.70
2009,08,24,17,33,16.70
2009,08,24,17,34,16.80
2009,08,24,17,35,16.90
2009,08,24,17,36,17.00
2009,08,24,17,37,17.20
2009,08,24,17,38,17.30
2009,08,24,17,39,17.50
2009,08,24,17,40,17.60
2009,08,24,17,41,17.70
2009,08,24,17,42,17.70
2009,08,24,17,43,17.80
2009,08,24,17,44,17.80
2009,08,24,17,45,17.90
2009,08,24,17,46,17.90
2009,08,24,17,47,17.90
2009,08,24,17,48,17.90
2009,08,24,17,49,18.00
2009,08,24,17,50,18.10
2009,08,24,17,51,18.10
2009,08,24,17,52,18.10
2009,08,24,17,53,18.10
2009,08,24,17,54,18.10
2009,08,24,17,55,18.10
2009,08,24,17,56,18.10
2009,08,24,17,57,18.20
2009,08,24,17,58,18.20
2009,08,24,17,59,18.30
2009,08,24,18,00,18.30
2009,08,24,18,01,18.40
2009,08,24,18,02,18.40
2009,08,24,18,03,18.30
2009,08,24,18,04,18.30
2009,08,24,18,05,18.30
2009,08,24,18,06,18.30
2009,08,24,18,07,18.30
2009,08,24,18,08,18.30
2009,08,24,18,09,18.30
2009,08,24,18,10,18.40
2009,08,24,18,11,18.40
2009,08,24,18,12,18.40
2009,08,24,18,13,18.40
2009,08,24,18,14,18.30
2009,08,24,18,15,18.30
2009,08,24,18,16,18.20
2009,08,24,18,17,18.10
2009,08,24,18,18,18.10
2009,08,24,18,19,18.10
2009,08,24,18,20,18.10
2009,08,24,18,21,18.10
2009,08,24,18,22,18.10
2009,08,24,18,23,18.20
2009,08,24,18,24,18.20
2009,08,24,18,25,18.20
2009,08,24,18,26,18.20
2009,08,24,18,27,18.20
2009,08,24,18,28,18.20
2009,08,24,18,29,18.30
2009,08,24,18,30,18.40
2009,08,24,18,31,18.40
2009,08,24,18,32,18.50
2009,08,24,18,33,18.50
2009,08,24,18,34,18.60
2009,08,24,18,35,18.60
2009,08,24,18,36,18.70
2009,08,24,18,37,18.70
2009,08,24,18,38,18.70
2009,08,24,18,39,18.80
2009,08,24,18,40,18.80
2009,08,24,18,41,18.80
2009,08,24,18,42,18.90
2009,08,24,18,43,18.90
2009,08,24,18,44,18.90
2009,08,24,18,45,19.00
2009,08,24,18,46,19.10
2009,08,24,18,47,19.10
2009,08,24,18,48,19.10
2009,08,24,18,49,19.10
2009,08,24,18,50,19.10
2009,08,24,18,51,19.10
2009,08,24,18,52,19.10
2009,08,24,18,53,19.10
2009,08,24,18,54,19.10
2009,08,24,18,55,19.10
2009,08,24,18,56,19.10
2009,08,24,18,57,19.10
2009,08,24,18,58,19.10
2009,08,24,18,59,18.90
2009,08,24,19,00,18.90
2009,08,24,19,01,18.90
2009,08,24,19,02,18.90
2009,08,24,19,03,18.90
2009,08,24,19,04,18.80
2009,08,24,19,05,18.80
2009,08,24,19,06,18.70
2009,08,24,19,07,18.70
2009,08,24,19,08,18.70
2009,08,24,19,09,18.70
2009,08,24,19,10,18.70
2009,08,24,19,11,18.70
2009,08,24,19,12,18.70
2009,08,24,19,13,18.70
2009,08,24,19,14,18.80
2009,08,24,19,15,18.80
2009,08,24,19,16,18.80
2009,08,24,19,17,18.80
2009,08,24,19,18,18.70
2009,08,24,19,19,18.70
2009,08,24,19,20,18.70
2009,08,24,19,21,18.70
2009,08,24,19,22,18.60
2009,08,24,19,23,18.60
2009,08,24,19,24,18.60
2009,08,24,19,25,18.60
2009,08,24,19,26,18.60
2009,08,24,19,27,18.60
2009,08,24,19,28,18.50
2009,08,24,19,29,18.50
2009,08,24,19,30,18.50
2009,08,24,19,31,18.50
2009,08,24,19,32,18.50
2009,08,24,19,33,18.50
2009,08,24,19,34,18.50
2009,08,24,19,35,18.50
2009,08,24,19,36,18.50
2009,08,24,19,37,18.60
2009,08,24,19,38,18.60
2009,08,24,19,39,18.60
2009,08,24,19,40,18.60
2009,08,24,19,41,18.60
2009,08,24,19,42,18.70
2009,08,24,19,43,18.70
2009,08,24,19,44,18.70
2009,08,24,19,45,18.70
2009,08,24,19,46,18.60
2009,08,24,19,47,18.60
2009,08,24,19,48,18.60
2009,08,24,19,49,18.60
2009,08,24,19,50,18.60
2009,08,24,19,51,18.60
2009,08,24,19,52,18.50
2009,08,24,19,53,18.50
2009,08,24,19,54,18.50
2009,08,24,19,55,18.50
2009,08,24,19,56,18.50
2009,08,24,19,57,18.50
2009,08,24,19,58,18.50
2009,08,24,19,59,18.50
2009,08,24,20,00,18.50
2009,08,24,20,01,18.50
2009,08,24,20,02,18.50
2009,08,24,20,03,18.50
2009,08,24,20,04,18.50
2009,08,24,20,05,18.50
2009,08,24,20,06,18.50
2009,08,24,20,07,18.50
2009,08,24,20,08,18.50
2009,08,24,20,09,18.50
2009,08,24,20,10,18.50
2009,08,24,20,11,18.50
2009,08,24,20,12,18.50
2009,08,24,20,13,18.50
2009,08,24,20,14,18.50
